Weather History for State College, PA

Change the Weather History Date:

Tuesday, August 27, 2013

  Actual Average Record
Temperature  
Mean Temperature 78 °F -  
Max Temperature 86 °F 80 °F 97 °F (1948)
Min Temperature 69 °F 58 °F 45 °F (1944)
Cooling Degree Days 12    
Growing Degree Days 28 (Base 50)    
Moisture  
Dew Point 66 °F    
Average Humidity 75    
Maximum Humidity 96    
Minimum Humidity 45    
Precipitation  
Precipitation 0.02 in - - ()
Sea Level Pressure  
Sea Level Pressure 29.98 in    
Wind  
Wind Speed 4 mph (West)    
Max Wind Speed 12 mph    
Max Gust Speed -    
Visibility 8 miles    
Events Rain    
Averages and records for this station are not official NWS values.
T = Trace of Precipitation, MM = Missing Value Source: NWS Daily Summary

Daily Weather History Graph

Daily Weather History Graph

Search for Another Location

Airport:

Trip Planner

Search our weather history database for the weather conditions in past years. The results will help you decide how hot, cold, wet, or windy it might be!

Date:

Astronomy

Aug. 27, 2013 Rise Set
Actual Time 6:33 AM EDT 7:51 PM EDT
Civil Twilight 6:05 AM EDT 8:19 PM EDT
Nautical Twilight 5:30 AM EDT 8:53 PM EDT
Astronomical Twilight 4:54 AM EDT 9:29 PM EDT
Moon 11:40 PM EDT (8/27) 1:32 PM EDT (8/27)
Length of Visible Light 14h 14m
Length of Day
13h 17m
Waning Gibbous, 57% of the Moon is Illuminated
Aug 27
Waning Gibbous
Aug 28
Last Quarter
Sep 5
New
Sep 12
First Quarter
Sep 19
Full

Hourly Weather History & Observations

Time (EDT) Temp. Heat Index Dew Point Humidity Pressure Visibility Wind Dir Wind Speed Gust Speed Precip Events Conditions
12:15 AM 71.1 °F - 65.1 °F 81% 30.02 in 10.0 mi Calm Calm - N/A   Mostly Cloudy
12:35 AM 71.1 °F - 64.8 °F 80% 30.01 in 10.0 mi WSW 6.9 mph - N/A   Mostly Cloudy
12:55 AM 71.1 °F - 64.6 °F 80% 30.01 in 10.0 mi Calm Calm - N/A   Mostly Cloudy
1:15 AM 71.6 °F - 64.4 °F 78% 30.01 in 10.0 mi Calm Calm - N/A   Mostly Cloudy
1:35 AM 72.0 °F - 64.4 °F 77% 30.00 in 10.0 mi WSW 6.9 mph - N/A   Mostly Cloudy
1:55 AM 71.6 °F - 64.6 °F 78% 30.00 in 10.0 mi Calm Calm - N/A   Mostly Cloudy
2:15 AM 72.3 °F - 64.6 °F 77% 30.00 in 10.0 mi West 4.6 mph - N/A   Overcast
2:35 AM 72.5 °F - 64.6 °F 76% 30.00 in 10.0 mi West 5.8 mph - N/A   Overcast
2:55 AM 72.0 °F - 64.6 °F 77% 29.98 in 10.0 mi WSW 10.4 mph - N/A   Scattered Clouds
3:15 AM 71.6 °F - 64.6 °F 78% 29.99 in 10.0 mi West 6.9 mph - N/A   Clear
3:35 AM 71.1 °F - 64.6 °F 80% 29.98 in 10.0 mi WSW 5.8 mph - N/A   Clear
3:55 AM 71.1 °F - 64.6 °F 80% 29.99 in 10.0 mi West 6.9 mph - N/A   Clear
4:15 AM 71.6 °F - 64.6 °F 78% 29.99 in 10.0 mi West 6.9 mph - N/A   Scattered Clouds
4:35 AM 70.9 °F - 64.8 °F 81% 29.99 in 10.0 mi West 5.8 mph - N/A   Scattered Clouds
4:55 AM 70.7 °F - 64.8 °F 81% 29.99 in 10.0 mi West 9.2 mph - N/A   Scattered Clouds
5:15 AM 70.9 °F - 65.1 °F 82% 29.99 in 10.0 mi West 5.8 mph - N/A   Scattered Clouds
5:35 AM 70.7 °F - 65.3 °F 83% 29.99 in 10.0 mi West 5.8 mph - N/A   Scattered Clouds
5:55 AM 69.8 °F - 64.4 °F 83% 29.99 in 7.0 mi WNW 5.8 mph - N/A   Scattered Clouds
6:53 AM 69.8 °F - 66.2 °F 88% 30.00 in 6.0 mi Calm Calm - N/A   Mostly Cloudy
7:53 AM 71.6 °F - 66.2 °F 83% 30.00 in 5.0 mi West 3.5 mph - N/A   Mostly Cloudy
8:53 AM 73.4 °F - 68.0 °F 83% 29.99 in 5.0 mi WNW 6.9 mph - N/A   Haze
9:53 AM 75.2 °F - 68.0 °F 78% 30.01 in 5.0 mi WNW 5.8 mph - N/A   Haze
10:55 AM 78.8 °F - 66.2 °F 65% 30.00 in 5.0 mi NW 3.5 mph - N/A   Haze
11:53 AM 78.8 °F - 66.2 °F 65% 30.00 in 6.0 mi NNW 3.5 mph - N/A   Haze
12:53 PM 82.4 °F 83.9 °F 64.4 °F 54% 29.99 in 7.0 mi West 4.6 mph - N/A   Scattered Clouds
1:53 PM 84.2 °F 85.6 °F 64.4 °F 51% 29.97 in 10.0 mi NW 9.2 mph - N/A   Mostly Cloudy
2:53 PM 86.0 °F 86.6 °F 62.6 °F 45% 29.95 in 10.0 mi NW 6.9 mph - N/A   Scattered Clouds
3:53 PM 86.0 °F 86.6 °F 62.6 °F 45% 29.93 in 10.0 mi West 4.6 mph - N/A   Scattered Clouds
4:53 PM 86.0 °F 86.6 °F 62.6 °F 45% 29.91 in 10.0 mi South 5.8 mph - N/A   Scattered Clouds
5:53 PM 84.2 °F 86.6 °F 66.2 °F 55% 29.91 in 10.0 mi Calm Calm - N/A   Clear
6:53 PM 82.4 °F 84.6 °F 66.2 °F 58% 29.91 in 10.0 mi WSW 5.8 mph - N/A   Mostly Cloudy
7:53 PM 78.8 °F - 68.0 °F 69% 29.93 in 10.0 mi West 11.5 mph - N/A   Scattered Clouds
8:53 PM 75.2 °F - 68.0 °F 78% 29.96 in 7.0 mi WSW 9.2 mph - N/A   Clear
9:15 PM 76.3 °F - 68.0 °F 75% 29.96 in 10.0 mi SW 4.6 mph - N/A   Scattered Clouds
9:35 PM 75.9 °F - 68.2 °F 77% 29.97 in 10.0 mi Calm Calm - N/A   Mostly Cloudy
9:55 PM 75.9 °F - 68.4 °F 77% 29.97 in 10.0 mi SW 3.5 mph - N/A   Overcast
10:15 PM 76.1 °F - 69.3 °F 79% 29.97 in 10.0 mi WSW 4.6 mph - N/A Rain Rain
10:35 PM 73.9 °F - 70.5 °F 89% 29.97 in 7.0 mi SW 3.5 mph - 0.02 in Rain Rain
10:55 PM 73.4 °F - 70.7 °F 91% 29.97 in 7.0 mi SSE 3.5 mph - N/A Rain Light Rain
11:15 PM 72.5 °F - 70.7 °F 94% 29.98 in 5.0 mi Calm Calm - N/A   Clear
11:35 PM 72.5 °F - 70.7 °F 94% 29.97 in 4.0 mi South 3.5 mph - N/A   Scattered Clouds
11:55 PM 72.0 °F - 70.7 °F 96% 29.96 in 3.0 mi SSW 3.5 mph - N/A   Scattered Clouds